This is the latest recevied weather packets stored in our database for station/object N4DBJ. If no packets are shown the sender has not sent any weather packets the latest 10 day(s).
| Time | Temp. | Humidity | Pressure | Rain* | Wind** | Luminosity | Snow |
|---|---|---|---|---|---|---|---|
| 1778071529 | 10.56° C | 99% | 1009.4 hPa | 0 mm | - | 17 W/m² | - |
| 1778071226 | 10.56° C | 99% | 1009.3 hPa | 0 mm | - | 13 W/m² | - |
| 1778070924 | 10.56° C | 99% | 1009 hPa | 0 mm | - | 16 W/m² | - |
| 1778070622 | 10.56° C | 99% | 1009.2 hPa | 0 mm | - | 12 W/m² | - |
| 1778070318 | 10.56° C | 99% | 1009.2 hPa | 0 mm | - | 11 W/m² | - |
| 1778070017 | 10.56° C | 99% | 1009.2 hPa | 0 mm | - | 12 W/m² | - |
| 1778069714 | 10.56° C | 99% | 1009.4 hPa | 0 mm | - | 8 W/m² | - |
| 1778069410 | 10.56° C | 99% | 1009.1 hPa | 0 mm | - | 6 W/m² | - |
| 1778069108 | 10.56° C | 99% | 1008.9 hPa | 0 mm | - | 6 W/m² | - |
| 1778068805 | 10.56° C | 99% | 1008.8 hPa | 0 mm | - | 3 W/m² | - |
| 1778068503 | 10.56° C | 99% | 1008.6 hPa | 0 mm | - | 5 W/m² | - |
| 1778068201 | 10.56° C | 99% | 1008.7 hPa | 0 mm | - | 3 W/m² | - |
| 1778067898 | 10.56° C | 99% | 1008.5 hPa | 0 mm | - | 3 W/m² | - |
| 1778067596 | 10.56° C | 99% | 1008.5 hPa | 0 mm | - | 2 W/m² | - |
| 1778067294 | 10.56° C | 99% | 1008.6 hPa | 0 mm | - | 4 W/m² | - |
| 1778066990 | 10.56° C | 99% | 1008.7 hPa | 0 mm | - | 0 W/m² | - |
| 1778066688 | 10.56° C | 99% | 1008.5 hPa | 0 mm | - | 0 W/m² | - |
| 1778066385 | 10.56° C | 99% | 1008.1 hPa | 0 mm | - | 0 W/m² | - |
| 1778066083 | 10.56° C | 99% | 1007.6 hPa | 0 mm | - | 0 W/m² | - |
| 1778065780 | 10.56° C | 99% | 1007.6 hPa | 0 mm | - | 0 W/m² | - |
| 1778065478 | 11.11° C | 99% | 1008.2 hPa | 0 mm | - | 0 W/m² | - |
| 1778065174 | 11.11° C | 99% | 1008.7 hPa | 0 mm | - | 0 W/m² | - |
| 1778064870 | 10.56° C | 99% | 1007.7 hPa | 0 mm | - | 0 W/m² | - |
| 1778064568 | 11.11° C | 99% | 1007.5 hPa | 0 mm | - | 0 W/m² | - |
| 1778064266 | 11.11° C | 99% | 1007.5 hPa | 0 mm | - | 0 W/m² | - |
* Rain latest hour (hover to see other rain measurements)
** Current wind speed in m/s (hover to see current wind gust speed)